Location: Newark
(45.9456°N, 15.4064°E)
Time: 17:44:49
(UTC+00:00)

Explorer 7 - All Passes

Search period start: 24 January 2020 00:00
Search period end: 03 February 2020 00:00
Orbit: 485 x 679 km, 50.3° (Epoch: 24 January)

Date Brightness Start Highest point End Pass type
(mag) Time Alt. Az. Time Alt. Az. Time Alt. Az.
24 Jan - 00:09:45 10° W 00:13:24 47° N 00:17:07 10° ENE night (unlit)
24 Jan - 01:50:38 10° WNW 01:54:19 48° N 01:58:10 10° E night (unlit)
24 Jan - 03:31:05 10° WNW 03:34:56 64° SSW 03:38:59 10° SE visible
24 Jan - 05:12:49 10° WSW 05:14:55 14° SW 05:17:02 10° SSW visible
24 Jan - 20:54:55 10° S 20:57:39 19° SE 21:00:23 10° E night (unlit)
24 Jan - 22:33:58 10° WSW 22:37:44 89° S 22:41:31 10° ENE night (unlit)
25 Jan - 00:14:51 10° WNW 00:18:28 43° N 00:22:08 10° ENE night (unlit)
25 Jan - 01:55:36 10° WNW 01:59:21 57° NNE 02:03:15 10° E night (unlit)
25 Jan - 03:36:06 10° WNW 03:39:48 42° SW 03:43:40 10° SE visible
25 Jan - 20:59:04 10° SSW 21:02:25 30° SE 21:05:44 10° E night (unlit)
25 Jan - 22:38:57 10° WSW 22:42:41 67° NNW 22:46:28 10° ENE night (unlit)
26 Jan - 00:19:56 10° WNW 00:23:31 41° N 00:27:12 10° ENE night (unlit)
26 Jan - 02:00:32 10° WNW 02:04:21 74° NNE 02:08:18 10° ESE night (unlit)
26 Jan - 03:41:15 10° W 03:44:36 28° SW 03:48:06 10° SSE visible
26 Jan - 21:03:35 10° SW 21:07:13 46° SSE 21:10:50 10° ENE night (unlit)
26 Jan - 22:44:00 10° W 22:47:41 53° NNW 22:51:24 10° ENE night (unlit)
27 Jan - 00:24:57 10° WNW 00:28:35 44° N 00:32:17 10° E night (unlit)
27 Jan - 02:05:28 10° WNW 02:09:17 81° SSW 02:13:15 10° ESE night (unlit)
27 Jan - 03:46:38 10° W 03:49:22 18° SW 03:52:09 10° S visible
27 Jan - 19:30:02 10° SSE 19:32:09 14° SE 19:34:14 10° ESE night (unlit)
27 Jan - 21:08:19 10° SW 21:12:06 71° SSE 21:15:50 10° ENE night (unlit)
27 Jan - 22:49:06 10° W 22:52:44 45° N 22:56:23 10° ENE night (unlit)
28 Jan - 00:29:58 10° WNW 00:33:38 50° NNE 00:37:23 10° E night (unlit)
28 Jan - 02:10:27 10° WNW 02:14:11 55° SSW 02:18:03 10° SE night (unlit)
28 Jan - 03:52:51 10° WSW 03:54:03 11° SW 03:55:16 10° SSW visible
28 Jan - 19:33:49 10° SSW 19:36:52 23° SE 19:39:52 10° E night (unlit)
28 Jan - 21:13:13 10° WSW 21:17:01 82° NNW 21:20:47 10° ENE night (unlit)
28 Jan - 22:54:11 10° WNW 22:57:47 42° N 23:01:24 10° ENE night (unlit)
29 Jan - 00:34:54 10° WNW 00:38:39 61° NNE 00:42:28 10° E night (unlit)
29 Jan - 02:15:30 10° WNW 02:19:01 36° SW 02:22:40 10° SSE night (unlit)
29 Jan - 19:38:06 10° SSW 19:41:39 35° SE 19:45:06 10° ENE night (unlit)
29 Jan - 21:18:13 10° W 21:22:00 62° NNW 21:25:43 10° ENE night (unlit)
29 Jan - 22:59:15 10° WNW 23:02:51 42° N 23:06:28 10° ENE night (unlit)
30 Jan - 00:39:50 10° WNW 00:43:37 81° NNE 00:47:29 10° ESE night (unlit)
30 Jan - 02:20:42 10° W 02:23:48 24° SW 02:26:59 10° SSE night (unlit)
30 Jan - 18:05:57 10° SE 18:06:39 10° SE 18:07:19 10° ESE visible
30 Jan - 19:42:41 10° SW 19:46:29 54° SSE 19:50:10 10° ENE night (unlit)
30 Jan - 21:23:18 10° W 21:27:00 50° NNW 21:30:40 10° ENE night (unlit)
30 Jan - 23:04:16 10° WNW 23:07:54 45° N 23:11:34 10° E night (unlit)
31 Jan - 00:44:47 10° WNW 00:48:32 72° SSW 00:52:23 10° SE night (unlit)
31 Jan - 02:26:16 10° W 02:28:32 15° SW 02:30:49 10° S night (unlit)
31 Jan - 18:08:43 10° S 18:11:19 17° SE 18:13:53 10° E visible
31 Jan - 19:47:30 10° WSW 19:51:22 80° SSE 19:55:08 10° ENE visible
31 Jan - 21:28:24 10° W 21:32:03 44° N 21:35:40 10° ENE night (unlit)
31 Jan - 23:09:15 10° WNW 23:12:56 52° NNE 23:16:39 10° E night (unlit)
01 Feb - 00:49:47 10° WNW 00:53:25 48° SSW 00:57:08 10° SE night (unlit)
01 Feb - 18:12:43 10° SSW 18:16:04 26° SE 18:19:19 10° E visible
01 Feb - 19:52:26 10° WSW 19:56:18 75° NNW 20:00:04 10° ENE visible
01 Feb - 21:33:29 10° WNW 21:37:06 41° N 21:40:41 10° ENE night (unlit)
01 Feb - 23:14:12 10° WNW 23:17:56 66° NNE 23:21:43 10° ESE night (unlit)
02 Feb - 00:54:52 10° W 00:58:14 31° SW 01:01:40 10° SSE night (unlit)
02 Feb - 18:17:07 10° SW 18:20:52 41° SE 18:24:29 10° ENE visible
02 Feb - 19:57:27 10° W 20:01:17 57° NNW 20:05:01 10° ENE visible
02 Feb - 21:38:32 10° WNW 21:42:09 42° N 21:45:46 10° ENE night (unlit)
02 Feb - 23:19:08 10° WNW 23:22:54 89° NNE 23:26:42 10° ESE night (unlit)
